Regional Weather Roundup
Issued by NWS Tiyan, Guam

Current Version | Previous Version | Text Only | Print | Product List | Glossary On
Versions: 1 2 3 4 5 6 7 8 9 10 11 12 13 14 15 16 17 18 19 20 21 22 23 24 25 26 27 28 29 30 31 32 33 34 35 36 37 38 39 40 41 42 43 44 45 46 47 48 49 50
000
ASGM40 PGUM 300612
RWRGUM
WEATHER ROUNDUP FOR THE MARIANAS
NATIONAL WEATHER SERVICE TIYAN GU
400 PM CHST SAT AUG 30 2014

GUZ001>004-300700-
MARIANA ISLANDS-

CITY           SKY/WX    TMP DP  RH WIND       PRES   REMARKS
GUAM AIRPORT   PTSUNNY   84  73  70 E5        29.73S HX  91
ANDERSEN AFB   SUNNY     81  73  78 NE10      29.74S
ROTA AIRPORT   PTSUNNY   82  77  83 NE10      29.74S HX  91
TINIAN AP      MOSUNNY   81  79  94 NE6       29.71F
SAIPAN AP      MOSUNNY   82  79  89 NE7       29.73F HX  93

$$



USA.gov is the U.S. government's official web portal to all federal, state and local government web resources and services.